This is the latest recevied weather packets stored in our database for station/object E23XBQ-1. If no packets are shown the sender has not sent any weather packets the latest 10 day(s).
| Time | Temp. | Humidity | Pressure | Rain* | Wind** | Luminosity | Snow |
|---|---|---|---|---|---|---|---|
| 1777381236 | 28.89° C | 48% | 970 hPa | - | - | 0 W/m² | - |
| 1777381185 | 28.89° C | 48% | 970 hPa | - | - | 0 W/m² | - |
| 1777380558 | 29.44° C | 47% | 969 hPa | - | - | 0 W/m² | - |
| 1777380024 | 30° C | 46% | 969 hPa | - | - | 0 W/m² | - |
| 1777379400 | 30° C | 45% | 969 hPa | - | - | 0 W/m² | - |
| 1777378775 | 30.56° C | 46% | 968 hPa | - | - | 0 W/m² | - |
| 1777378150 | 31.11° C | 47% | 968 hPa | - | - | 0 W/m² | - |
| 1777377525 | 31.67° C | 47% | 968 hPa | - | - | 0 W/m² | - |
| 1777376901 | 32.22° C | 43% | 967 hPa | - | - | 0 W/m² | - |
| 1777376276 | 31.67° C | 46% | 967 hPa | - | - | 0 W/m² | - |
| 1777375651 | 32.22° C | 43% | 967 hPa | - | - | 0 W/m² | - |
| 1777375026 | 32.78° C | 42% | 966 hPa | - | - | 0 W/m² | - |
| 1777374402 | 32.78° C | 43% | 966 hPa | - | - | 0 W/m² | - |
| 1777373777 | 33.33° C | 41% | 966 hPa | - | - | 0 W/m² | - |
| 1777373153 | 33.33° C | 40% | 966 hPa | - | - | 0 W/m² | - |
| 1777372528 | 33.89° C | 40% | 966 hPa | - | - | 0 W/m² | - |
| 1777371903 | 34.44° C | 40% | 966 hPa | - | - | 0 W/m² | - |
| 1777371279 | 35° C | 39% | 966 hPa | - | - | 0 W/m² | - |
| 1777370654 | 35.56° C | 39% | 966 hPa | - | - | 0 W/m² | - |
| 1777370028 | 35.56° C | 38% | 966 hPa | - | - | 0 W/m² | - |
| 1777369406 | 36.11° C | 38% | 966 hPa | - | - | 0 W/m² | - |
| 1777369404 | 36.11° C | 38% | 966 hPa | - | - | 0 W/m² | - |
| 1777368779 | 36.67° C | 39% | 966 hPa | - | - | 0 W/m² | - |
| 1777368155 | 36.67° C | 39% | 966 hPa | - | - | 0 W/m² | - |
| 1777367530 | 36.67° C | 38% | 966 hPa | - | - | 0 W/m² | - |
* Rain since midnight (hover to see other rain measurements)
** Current wind speed in m/s (hover to see current wind gust speed)